Year,Month,Day,Hour,Minute,Value (Times are PST for temperature in C)
2015,06,27,00,00,18.40
2015,06,27,00,01,18.40
2015,06,27,00,02,18.40
2015,06,27,00,03,18.40
2015,06,27,00,04,18.40
2015,06,27,00,05,18.40
2015,06,27,00,06,18.40
2015,06,27,00,07,18.40
2015,06,27,00,08,18.40
2015,06,27,00,09,18.40
2015,06,27,00,10,18.40
2015,06,27,00,11,18.40
2015,06,27,00,12,18.30
2015,06,27,00,13,18.30
2015,06,27,00,14,18.30
2015,06,27,00,15,18.30
2015,06,27,00,16,18.30
2015,06,27,00,17,18.30
2015,06,27,00,18,18.30
2015,06,27,00,19,18.30
2015,06,27,00,20,18.30
2015,06,27,00,21,18.30
2015,06,27,00,22,18.30
2015,06,27,00,23,18.30
2015,06,27,00,24,18.20
2015,06,27,00,25,18.20
2015,06,27,00,26,18.20
2015,06,27,00,27,18.20
2015,06,27,00,28,18.20
2015,06,27,00,29,18.20
2015,06,27,00,30,18.20
2015,06,27,00,31,18.20
2015,06,27,00,32,18.20
2015,06,27,00,33,18.20
2015,06,27,00,34,18.10
2015,06,27,00,35,18.10
2015,06,27,00,36,18.10
2015,06,27,00,37,18.10
2015,06,27,00,38,18.00
2015,06,27,00,39,17.90
2015,06,27,00,40,17.90
2015,06,27,00,41,17.90
2015,06,27,00,42,17.90
2015,06,27,00,43,17.90
2015,06,27,00,44,17.90
2015,06,27,00,45,17.80
2015,06,27,00,46,17.80
2015,06,27,00,47,17.80
2015,06,27,00,48,17.70
2015,06,27,00,49,17.70
2015,06,27,00,50,17.70
2015,06,27,00,51,17.60
2015,06,27,00,52,17.60
2015,06,27,00,53,17.60
2015,06,27,00,54,17.50
2015,06,27,00,55,17.50
2015,06,27,00,56,17.40
2015,06,27,00,57,17.40
2015,06,27,00,58,17.30
2015,06,27,00,59,17.30
2015,06,27,01,00,17.30
2015,06,27,01,01,17.30
2015,06,27,01,02,17.30
2015,06,27,01,03,17.30
2015,06,27,01,04,17.20
2015,06,27,01,05,17.20
2015,06,27,01,06,17.20
2015,06,27,01,07,17.20
2015,06,27,01,08,17.20
2015,06,27,01,09,17.20
2015,06,27,01,10,17.20
2015,06,27,01,11,17.10
2015,06,27,01,12,17.10
2015,06,27,01,13,17.10
2015,06,27,01,14,17.10
2015,06,27,01,15,17.10
2015,06,27,01,16,17.00
2015,06,27,01,17,17.00
2015,06,27,01,18,17.00
2015,06,27,01,19,17.00
2015,06,27,01,20,17.00
2015,06,27,01,21,16.90
2015,06,27,01,22,16.90
2015,06,27,01,23,16.90
2015,06,27,01,24,16.90
2015,06,27,01,25,16.90
2015,06,27,01,26,16.90
2015,06,27,01,27,16.90
2015,06,27,01,28,16.80
2015,06,27,01,29,16.90
2015,06,27,01,30,16.90
2015,06,27,01,31,16.90
2015,06,27,01,32,16.90
2015,06,27,01,33,17.00
2015,06,27,01,34,17.00
2015,06,27,01,35,17.00
2015,06,27,01,36,17.00
2015,06,27,01,37,17.00
2015,06,27,01,38,17.00
2015,06,27,01,39,17.00
2015,06,27,01,40,17.00
2015,06,27,01,41,17.00
2015,06,27,01,42,17.00
2015,06,27,01,43,17.00
2015,06,27,01,44,17.00
2015,06,27,01,45,17.00
2015,06,27,01,46,17.00
2015,06,27,01,47,17.00
2015,06,27,01,48,17.00
2015,06,27,01,49,17.00
2015,06,27,01,50,17.00
2015,06,27,01,51,17.00
2015,06,27,01,52,17.00
2015,06,27,01,53,17.00
2015,06,27,01,54,17.00
2015,06,27,01,55,17.00
2015,06,27,01,56,17.00
2015,06,27,01,57,17.00
2015,06,27,01,58,17.00
2015,06,27,01,59,17.00
2015,06,27,02,00,17.00
2015,06,27,02,01,17.00
2015,06,27,02,02,16.90
2015,06,27,02,03,16.90
2015,06,27,02,04,16.90
2015,06,27,02,05,16.90
2015,06,27,02,06,16.80
2015,06,27,02,07,16.80
2015,06,27,02,08,16.80
2015,06,27,02,09,16.70
2015,06,27,02,10,16.70
2015,06,27,02,11,16.70
2015,06,27,02,12,16.70
2015,06,27,02,13,16.70
2015,06,27,02,14,16.70
2015,06,27,02,15,16.70
2015,06,27,02,16,16.60
2015,06,27,02,17,16.60
2015,06,27,02,18,16.60
2015,06,27,02,19,16.60
2015,06,27,02,20,16.60
2015,06,27,02,21,16.60
2015,06,27,02,22,16.60
2015,06,27,02,23,16.50
2015,06,27,02,24,16.40
2015,06,27,02,25,16.40
2015,06,27,02,26,16.40
2015,06,27,02,27,16.40
2015,06,27,02,28,16.40
2015,06,27,02,29,16.40
2015,06,27,02,30,16.40
2015,06,27,02,31,16.40
2015,06,27,02,32,16.40
2015,06,27,02,33,16.40
2015,06,27,02,34,16.40
2015,06,27,02,35,16.40
2015,06,27,02,36,16.40
2015,06,27,02,37,16.40
2015,06,27,02,38,16.40
2015,06,27,02,39,16.40
2015,06,27,02,40,16.40
2015,06,27,02,41,16.40
2015,06,27,02,42,16.30
2015,06,27,02,43,16.30
2015,06,27,02,44,16.30
2015,06,27,02,45,16.40
2015,06,27,02,46,16.40
2015,06,27,02,47,16.40
2015,06,27,02,48,16.40
2015,06,27,02,49,16.40
2015,06,27,02,50,16.30
2015,06,27,02,51,16.30
2015,06,27,02,52,16.30
2015,06,27,02,53,16.30
2015,06,27,02,54,16.30
2015,06,27,02,55,16.30
2015,06,27,02,56,16.30
2015,06,27,02,57,16.30
2015,06,27,02,58,16.30
2015,06,27,02,59,16.30
2015,06,27,03,00,16.20
2015,06,27,03,01,16.20
2015,06,27,03,02,16.20
2015,06,27,03,03,16.20
2015,06,27,03,04,16.20
2015,06,27,03,05,16.20
2015,06,27,03,06,16.20
2015,06,27,03,07,16.20
2015,06,27,03,08,16.20
2015,06,27,03,09,16.20
2015,06,27,03,10,16.10
2015,06,27,03,11,16.10
2015,06,27,03,12,16.10
2015,06,27,03,13,16.10
2015,06,27,03,14,16.10
2015,06,27,03,15,16.10
2015,06,27,03,16,16.10
2015,06,27,03,17,16.10
2015,06,27,03,18,16.10
2015,06,27,03,19,16.10
2015,06,27,03,20,16.10
2015,06,27,03,21,16.10
2015,06,27,03,22,16.10
2015,06,27,03,23,16.10
2015,06,27,03,24,16.10
2015,06,27,03,25,16.10
2015,06,27,03,26,16.00
2015,06,27,03,27,15.90
2015,06,27,03,28,15.90
2015,06,27,03,29,15.90
2015,06,27,03,30,15.90
2015,06,27,03,31,15.90
2015,06,27,03,32,15.90
2015,06,27,03,33,15.80
2015,06,27,03,34,15.80
2015,06,27,03,35,15.80
2015,06,27,03,36,15.80
2015,06,27,03,37,15.80
2015,06,27,03,38,15.80
2015,06,27,03,39,15.80
2015,06,27,03,40,15.80
2015,06,27,03,41,15.80
2015,06,27,03,42,15.80
2015,06,27,03,43,15.80
2015,06,27,03,44,15.80
2015,06,27,03,45,15.80
2015,06,27,03,46,15.80
2015,06,27,03,47,15.80
2015,06,27,03,48,15.70
2015,06,27,03,49,15.70
2015,06,27,03,50,15.70
2015,06,27,03,51,15.70
2015,06,27,03,52,15.70
2015,06,27,03,53,15.70
2015,06,27,03,54,15.60
2015,06,27,03,55,15.60
2015,06,27,03,56,15.60
2015,06,27,03,57,15.60
2015,06,27,03,58,15.60
2015,06,27,03,59,15.60
2015,06,27,04,00,15.60
2015,06,27,04,01,15.60
2015,06,27,04,02,15.60
2015,06,27,04,03,15.60
2015,06,27,04,04,15.60
2015,06,27,04,05,15.60
2015,06,27,04,06,15.60
2015,06,27,04,07,15.50
2015,06,27,04,08,15.50
2015,06,27,04,09,15.50
2015,06,27,04,10,15.50
2015,06,27,04,11,15.50
2015,06,27,04,12,15.50
2015,06,27,04,13,15.50
2015,06,27,04,14,15.50
2015,06,27,04,15,15.40
2015,06,27,04,16,15.40
2015,06,27,04,17,15.30
2015,06,27,04,18,15.30
2015,06,27,04,19,15.30
2015,06,27,04,20,15.30
2015,06,27,04,21,15.30
2015,06,27,04,22,15.30
2015,06,27,04,23,15.30
2015,06,27,04,24,15.30
2015,06,27,04,25,15.30
2015,06,27,04,26,15.30
2015,06,27,04,27,15.30
2015,06,27,04,28,15.30
2015,06,27,04,29,15.30
2015,06,27,04,30,15.30
2015,06,27,04,31,15.30
2015,06,27,04,32,15.30
2015,06,27,04,33,15.30
2015,06,27,04,34,15.30
2015,06,27,04,35,15.30
2015,06,27,04,36,15.30
2015,06,27,04,37,15.20
2015,06,27,04,38,15.20
2015,06,27,04,39,15.20
2015,06,27,04,40,15.20
2015,06,27,04,41,15.20
2015,06,27,04,42,15.20
2015,06,27,04,43,15.20
2015,06,27,04,44,15.20
2015,06,27,04,45,15.20
2015,06,27,04,46,15.20
2015,06,27,04,47,15.10
2015,06,27,04,48,15.10
2015,06,27,04,49,15.10
2015,06,27,04,50,15.10
2015,06,27,04,51,15.10
2015,06,27,04,52,15.10
2015,06,27,04,53,15.10
2015,06,27,04,54,15.10
2015,06,27,04,55,15.10
2015,06,27,04,56,15.10
2015,06,27,04,57,15.10
2015,06,27,04,58,15.10
2015,06,27,04,59,15.10
2015,06,27,05,00,15.00
2015,06,27,05,01,15.00
2015,06,27,05,02,15.00
2015,06,27,05,03,15.00
2015,06,27,05,04,15.00
2015,06,27,05,05,15.00
2015,06,27,05,06,15.00
2015,06,27,05,07,15.00
2015,06,27,05,08,15.00
2015,06,27,05,09,15.00
2015,06,27,05,10,14.90
2015,06,27,05,11,14.90
2015,06,27,05,12,15.00
2015,06,27,05,13,15.00
2015,06,27,05,14,15.00
2015,06,27,05,15,15.00
2015,06,27,05,16,15.00
2015,06,27,05,17,15.00
2015,06,27,05,18,15.00
2015,06,27,05,19,15.00
2015,06,27,05,20,15.00
2015,06,27,05,21,15.00
2015,06,27,05,22,15.10
2015,06,27,05,23,15.00
2015,06,27,05,24,15.00
2015,06,27,05,25,15.00
2015,06,27,05,26,15.00
2015,06,27,05,27,15.00
2015,06,27,05,28,15.00
2015,06,27,05,29,15.00
2015,06,27,05,30,15.00
2015,06,27,05,31,15.00
2015,06,27,05,32,15.00
2015,06,27,05,33,14.90
2015,06,27,05,34,14.90
2015,06,27,05,35,14.90
2015,06,27,05,36,14.90
2015,06,27,05,37,14.90
2015,06,27,05,38,14.90
2015,06,27,05,39,14.90
2015,06,27,05,40,14.90
2015,06,27,05,41,14.90
2015,06,27,05,42,14.80
2015,06,27,05,43,14.80
2015,06,27,05,44,14.80
2015,06,27,05,45,14.80
2015,06,27,05,46,14.80
2015,06,27,05,47,14.80
2015,06,27,05,48,14.80
2015,06,27,05,49,14.80
2015,06,27,05,50,14.80
2015,06,27,05,51,14.80
2015,06,27,05,52,14.80
2015,06,27,05,53,14.80
2015,06,27,05,54,14.80
2015,06,27,05,55,14.80
2015,06,27,05,56,14.80
2015,06,27,05,57,14.80
2015,06,27,05,58,14.80
2015,06,27,05,59,14.80
2015,06,27,06,00,14.80
2015,06,27,06,01,14.80
2015,06,27,06,02,14.80
2015,06,27,06,03,14.80
2015,06,27,06,04,14.90
2015,06,27,06,05,14.90
2015,06,27,06,06,14.90
2015,06,27,06,07,14.90
2015,06,27,06,08,14.90
2015,06,27,06,09,15.00
2015,06,27,06,10,15.00
2015,06,27,06,11,15.00
2015,06,27,06,12,15.10
2015,06,27,06,13,15.10
2015,06,27,06,14,15.10
2015,06,27,06,15,15.20
2015,06,27,06,16,15.20
2015,06,27,06,17,15.20
2015,06,27,06,18,15.30
2015,06,27,06,19,15.30
2015,06,27,06,20,15.30
2015,06,27,06,21,15.40
2015,06,27,06,22,15.50
2015,06,27,06,23,15.50
2015,06,27,06,24,15.50
2015,06,27,06,25,15.60
2015,06,27,06,26,15.60
2015,06,27,06,27,15.60
2015,06,27,06,28,15.70
2015,06,27,06,29,15.70
2015,06,27,06,30,15.70
2015,06,27,06,31,15.80
2015,06,27,06,32,15.80
2015,06,27,06,33,15.80
2015,06,27,06,34,15.90
2015,06,27,06,35,15.90
2015,06,27,06,36,16.00
2015,06,27,06,37,16.10
2015,06,27,06,38,16.10
2015,06,27,06,39,16.10
2015,06,27,06,40,16.20
2015,06,27,06,41,16.20
2015,06,27,06,42,16.20
2015,06,27,06,43,16.20
2015,06,27,06,44,16.30
2015,06,27,06,45,16.30
2015,06,27,06,46,16.30
2015,06,27,06,47,16.40
2015,06,27,06,48,16.40
2015,06,27,06,49,16.40
2015,06,27,06,50,16.40
2015,06,27,06,51,16.50
2015,06,27,06,52,16.60
2015,06,27,06,53,16.60
2015,06,27,06,54,16.60
2015,06,27,06,55,16.70
2015,06,27,06,56,16.70
2015,06,27,06,57,16.70
2015,06,27,06,58,16.70
2015,06,27,06,59,16.70
2015,06,27,07,00,16.70
2015,06,27,07,01,16.70
2015,06,27,07,02,16.70
2015,06,27,07,03,16.70
2015,06,27,07,04,16.70
2015,06,27,07,05,16.70
2015,06,27,07,06,16.70
2015,06,27,07,07,16.70
2015,06,27,07,08,16.70
2015,06,27,07,09,16.80
2015,06,27,07,10,16.80
2015,06,27,07,11,16.90
2015,06,27,07,12,16.90
2015,06,27,07,13,16.90
2015,06,27,07,14,17.00
2015,06,27,07,15,17.00
2015,06,27,07,16,17.00
2015,06,27,07,17,17.00
2015,06,27,07,18,17.00
2015,06,27,07,19,17.10
2015,06,27,07,20,17.20
2015,06,27,07,21,17.20
2015,06,27,07,22,17.30
2015,06,27,07,23,17.40
2015,06,27,07,24,17.50
2015,06,27,07,25,17.60
2015,06,27,07,26,17.80
2015,06,27,07,27,17.90
2015,06,27,07,28,18.10
2015,06,27,07,29,18.30
2015,06,27,07,30,18.50
2015,06,27,07,31,18.60
2015,06,27,07,32,18.80
2015,06,27,07,33,18.90
2015,06,27,07,34,19.10
2015,06,27,07,35,19.10
2015,06,27,07,36,19.30
2015,06,27,07,37,19.40
2015,06,27,07,38,19.40
2015,06,27,07,39,19.50
2015,06,27,07,40,19.60
2015,06,27,07,41,19.70
2015,06,27,07,42,19.90
2015,06,27,07,43,19.90
2015,06,27,07,44,20.10
2015,06,27,07,45,20.20
2015,06,27,07,46,20.20
2015,06,27,07,47,20.30
2015,06,27,07,48,20.50
2015,06,27,07,49,20.60
2015,06,27,07,50,20.70
2015,06,27,07,51,20.80
2015,06,27,07,52,20.90
2015,06,27,07,53,21.00
2015,06,27,07,54,21.20
2015,06,27,07,55,21.30
2015,06,27,07,56,21.40
2015,06,27,07,57,21.50
2015,06,27,07,58,21.60
2015,06,27,07,59,21.60
2015,06,27,08,00,21.60
2015,06,27,08,01,21.50
2015,06,27,08,02,21.40
2015,06,27,08,03,21.30
2015,06,27,08,04,21.30
2015,06,27,08,05,21.20
2015,06,27,08,06,21.10
2015,06,27,08,07,21.10
2015,06,27,08,08,21.00
2015,06,27,08,09,21.00
2015,06,27,08,10,21.00
2015,06,27,08,11,20.90
2015,06,27,08,12,20.90
2015,06,27,08,13,20.90
2015,06,27,08,14,20.90
2015,06,27,08,15,20.90
2015,06,27,08,16,21.00
2015,06,27,08,17,21.00
2015,06,27,08,18,21.00
2015,06,27,08,19,21.00
2015,06,27,08,20,21.10
2015,06,27,08,21,21.10
2015,06,27,08,22,21.10
2015,06,27,08,23,21.20
2015,06,27,08,24,21.20
2015,06,27,08,25,21.20
2015,06,27,08,26,21.20
2015,06,27,08,27,21.20
2015,06,27,08,28,21.20
2015,06,27,08,29,21.20
2015,06,27,08,30,21.20
2015,06,27,08,31,21.10
2015,06,27,08,32,21.00
2015,06,27,08,33,20.90
2015,06,27,08,34,20.80
2015,06,27,08,35,20.80
2015,06,27,08,36,20.70
2015,06,27,08,37,20.70
2015,06,27,08,38,20.70
2015,06,27,08,39,20.70
2015,06,27,08,40,20.70
2015,06,27,08,41,20.80
2015,06,27,08,42,20.80
2015,06,27,08,43,20.90
2015,06,27,08,44,21.00
2015,06,27,08,45,21.10
2015,06,27,08,46,21.20
2015,06,27,08,47,21.30
2015,06,27,08,48,21.40
2015,06,27,08,49,21.60
2015,06,27,08,50,21.70
2015,06,27,08,51,21.90
2015,06,27,08,52,22.10
2015,06,27,08,53,22.20
2015,06,27,08,54,22.40
2015,06,27,08,55,22.60
2015,06,27,08,56,22.70
2015,06,27,08,57,22.80
2015,06,27,08,58,22.90
2015,06,27,08,59,22.90
2015,06,27,09,00,23.00
2015,06,27,09,01,23.10
2015,06,27,09,02,23.20
2015,06,27,09,03,23.30
2015,06,27,09,04,23.30
2015,06,27,09,05,23.30
2015,06,27,09,06,23.40
2015,06,27,09,07,23.40
2015,06,27,09,08,23.50
2015,06,27,09,09,23.60
2015,06,27,09,10,23.70
2015,06,27,09,11,23.70
2015,06,27,09,12,23.70
2015,06,27,09,13,23.70
2015,06,27,09,14,23.70
2015,06,27,09,15,23.70
2015,06,27,09,16,23.80
2015,06,27,09,17,23.90
2015,06,27,09,18,24.00
2015,06,27,09,19,24.10
2015,06,27,09,20,24.30
2015,06,27,09,21,24.50
2015,06,27,09,22,24.70
2015,06,27,09,23,24.80
2015,06,27,09,24,24.90
2015,06,27,09,25,24.90
2015,06,27,09,26,25.00
2015,06,27,09,27,25.00
2015,06,27,09,28,25.00
2015,06,27,09,29,24.90
2015,06,27,09,30,24.80
2015,06,27,09,31,24.30
2015,06,27,09,32,23.80
2015,06,27,09,33,23.00
2015,06,27,09,34,22.40
2015,06,27,09,35,21.90
2015,06,27,09,36,21.60
2015,06,27,09,37,21.30
2015,06,27,09,38,21.00
2015,06,27,09,39,20.80
2015,06,27,09,40,20.60
2015,06,27,09,41,20.40
2015,06,27,09,42,20.30
2015,06,27,09,43,20.20
2015,06,27,09,44,19.90
2015,06,27,09,45,19.80
2015,06,27,09,46,19.70
2015,06,27,09,47,19.60
2015,06,27,09,48,19.60
2015,06,27,09,49,19.50
2015,06,27,09,50,19.30
2015,06,27,09,51,19.20
2015,06,27,09,52,19.10
2015,06,27,09,53,18.90
2015,06,27,09,54,18.80
2015,06,27,09,55,18.70
2015,06,27,09,56,18.70
2015,06,27,09,57,18.70
2015,06,27,09,58,18.60
2015,06,27,09,59,18.50
2015,06,27,10,00,18.50
2015,06,27,10,01,18.50
2015,06,27,10,02,18.60
2015,06,27,10,03,18.60
2015,06,27,10,04,18.60
2015,06,27,10,05,18.50
2015,06,27,10,06,18.50
2015,06,27,10,07,18.50
2015,06,27,10,08,18.40
2015,06,27,10,09,18.30
2015,06,27,10,10,18.20
2015,06,27,10,11,18.20
2015,06,27,10,12,18.20
2015,06,27,10,13,18.20
2015,06,27,10,14,18.30
2015,06,27,10,15,18.40
2015,06,27,10,16,18.60
2015,06,27,10,17,18.60
2015,06,27,10,18,18.70
2015,06,27,10,19,18.80
2015,06,27,10,20,18.90
2015,06,27,10,21,19.00
2015,06,27,10,22,19.10
2015,06,27,10,23,19.10
2015,06,27,10,24,19.20
2015,06,27,10,25,19.40
2015,06,27,10,26,19.40
2015,06,27,10,27,19.50
2015,06,27,10,28,19.60
2015,06,27,10,29,19.60
2015,06,27,10,30,19.70
2015,06,27,10,31,19.70
2015,06,27,10,32,19.80
2015,06,27,10,33,19.90
2015,06,27,10,34,19.90
2015,06,27,10,35,20.00
2015,06,27,10,36,20.10
2015,06,27,10,37,20.20
2015,06,27,10,38,20.30
2015,06,27,10,39,20.50
2015,06,27,10,40,20.50
2015,06,27,10,41,20.60
2015,06,27,10,42,20.70
2015,06,27,10,43,20.80
2015,06,27,10,44,20.90
2015,06,27,10,45,21.00
2015,06,27,10,46,21.00
2015,06,27,10,47,21.10
2015,06,27,10,48,21.20
2015,06,27,10,49,21.30
2015,06,27,10,50,21.50
2015,06,27,10,51,21.70
2015,06,27,10,52,21.90
2015,06,27,10,53,22.00
2015,06,27,10,54,22.20
2015,06,27,10,55,22.30
2015,06,27,10,56,22.40
2015,06,27,10,57,22.50
2015,06,27,10,58,22.60
2015,06,27,10,59,22.70
2015,06,27,11,00,22.80
2015,06,27,11,01,22.90
2015,06,27,11,02,22.90
2015,06,27,11,03,22.90
2015,06,27,11,04,23.10
2015,06,27,11,05,23.20
2015,06,27,11,06,23.30
2015,06,27,11,07,23.50
2015,06,27,11,08,23.60
2015,06,27,11,09,23.80
2015,06,27,11,10,23.90
2015,06,27,11,11,24.00
2015,06,27,11,12,24.10
2015,06,27,11,13,24.30
2015,06,27,11,14,24.40
2015,06,27,11,15,24.60
2015,06,27,11,16,24.70
2015,06,27,11,17,24.80
2015,06,27,11,18,25.00
2015,06,27,11,19,25.10
2015,06,27,11,20,25.30
2015,06,27,11,21,25.40
2015,06,27,11,22,25.60
2015,06,27,11,23,25.70
2015,06,27,11,24,25.80
2015,06,27,11,25,25.80
2015,06,27,11,26,25.80
2015,06,27,11,27,25.80
2015,06,27,11,28,25.80
2015,06,27,11,29,25.80
2015,06,27,11,30,25.80
2015,06,27,11,31,25.80
2015,06,27,11,32,25.90
2015,06,27,11,33,26.10
2015,06,27,11,34,26.20
2015,06,27,11,35,26.40
2015,06,27,11,36,26.50
2015,06,27,11,37,26.60
2015,06,27,11,38,26.60
2015,06,27,11,39,26.70
2015,06,27,11,40,26.80
2015,06,27,11,41,26.90
2015,06,27,11,42,27.00
2015,06,27,11,43,27.10
2015,06,27,11,44,27.20
2015,06,27,11,45,27.30
2015,06,27,11,46,27.30
2015,06,27,11,47,27.30
2015,06,27,11,48,27.30
2015,06,27,11,49,27.30
2015,06,27,11,50,27.30
2015,06,27,11,51,27.30
2015,06,27,11,52,27.30
2015,06,27,11,53,27.30
2015,06,27,11,54,27.30
2015,06,27,11,55,27.40
2015,06,27,11,56,27.60
2015,06,27,11,57,27.50
2015,06,27,11,58,27.40
2015,06,27,11,59,27.40
2015,06,27,12,00,27.40
2015,06,27,12,01,27.30
2015,06,27,12,02,27.30
2015,06,27,12,03,27.20
2015,06,27,12,04,27.00
2015,06,27,12,05,26.80
2015,06,27,12,06,26.40
2015,06,27,12,07,26.00
2015,06,27,12,08,25.80
2015,06,27,12,09,25.60
2015,06,27,12,10,25.60
2015,06,27,12,11,25.60
2015,06,27,12,12,25.40
2015,06,27,12,13,25.20
2015,06,27,12,14,24.80
2015,06,27,12,15,24.50
2015,06,27,12,16,24.30
2015,06,27,12,17,24.00
2015,06,27,12,18,23.70
2015,06,27,12,19,23.40
2015,06,27,12,20,23.10
2015,06,27,12,21,22.90
2015,06,27,12,22,22.80
2015,06,27,12,23,22.70
2015,06,27,12,24,22.60
2015,06,27,12,25,22.60
2015,06,27,12,26,22.60
2015,06,27,12,27,22.60
2015,06,27,12,28,22.60
2015,06,27,12,29,22.70
2015,06,27,12,30,22.70
2015,06,27,12,31,22.70
2015,06,27,12,32,22.50
2015,06,27,12,33,22.30
2015,06,27,12,34,22.10
2015,06,27,12,35,22.10
2015,06,27,12,36,22.20
2015,06,27,12,37,22.40
2015,06,27,12,38,22.50
2015,06,27,12,39,22.60
2015,06,27,12,40,22.70
2015,06,27,12,41,22.70
2015,06,27,12,42,22.70
2015,06,27,12,43,22.70
2015,06,27,12,44,22.70
2015,06,27,12,45,22.60
2015,06,27,12,46,22.60
2015,06,27,12,47,22.70
2015,06,27,12,48,22.70
2015,06,27,12,49,22.80
2015,06,27,12,50,23.00
2015,06,27,12,51,23.00
2015,06,27,12,52,22.90
2015,06,27,12,53,22.90
2015,06,27,12,54,22.80
2015,06,27,12,55,22.70
2015,06,27,12,56,22.60
2015,06,27,12,57,22.60
2015,06,27,12,58,22.80
2015,06,27,12,59,23.00
2015,06,27,13,00,23.10
2015,06,27,13,01,23.20
2015,06,27,13,02,23.30
2015,06,27,13,03,23.30
2015,06,27,13,04,23.30
2015,06,27,13,05,23.30
2015,06,27,13,06,23.40
2015,06,27,13,07,23.60
2015,06,27,13,08,23.70
2015,06,27,13,09,23.70
2015,06,27,13,10,23.80
2015,06,27,13,11,23.90
2015,06,27,13,12,23.90
2015,06,27,13,13,23.90
2015,06,27,13,14,23.90
2015,06,27,13,15,23.90
2015,06,27,13,16,23.90
2015,06,27,13,17,23.70
2015,06,27,13,18,23.70
2015,06,27,13,19,23.70
2015,06,27,13,20,23.70
2015,06,27,13,21,23.70
2015,06,27,13,22,23.70
2015,06,27,13,23,23.70
2015,06,27,13,24,23.70
2015,06,27,13,25,23.70
2015,06,27,13,26,23.70
2015,06,27,13,27,23.70
2015,06,27,13,28,23.70
2015,06,27,13,29,23.70
2015,06,27,13,30,23.60
2015,06,27,13,31,23.60
2015,06,27,13,32,23.70
2015,06,27,13,33,23.70
2015,06,27,13,34,23.70
2015,06,27,13,35,23.70
2015,06,27,13,36,23.70
2015,06,27,13,37,23.70
2015,06,27,13,38,23.70
2015,06,27,13,39,23.90
2015,06,27,13,40,24.00
2015,06,27,13,41,24.10
2015,06,27,13,42,24.40
2015,06,27,13,43,24.50
2015,06,27,13,44,24.50
2015,06,27,13,45,24.40
2015,06,27,13,46,24.20
2015,06,27,13,47,24.10
2015,06,27,13,48,24.10
2015,06,27,13,49,24.20
2015,06,27,13,50,24.30
2015,06,27,13,51,24.40
2015,06,27,13,52,24.40
2015,06,27,13,53,24.40
2015,06,27,13,54,24.30
2015,06,27,13,55,24.30
2015,06,27,13,56,24.20
2015,06,27,13,57,24.20
2015,06,27,13,58,24.20
2015,06,27,13,59,24.20
2015,06,27,14,00,24.20
2015,06,27,14,01,24.10
2015,06,27,14,02,24.10
2015,06,27,14,03,24.00
2015,06,27,14,04,24.00
2015,06,27,14,05,24.10
2015,06,27,14,06,24.20
2015,06,27,14,07,24.20
2015,06,27,14,08,24.30
2015,06,27,14,09,24.30
2015,06,27,14,10,24.30
2015,06,27,14,11,24.20
2015,06,27,14,12,24.30
2015,06,27,14,13,24.20
2015,06,27,14,14,24.20
2015,06,27,14,15,24.10
2015,06,27,14,16,24.10
2015,06,27,14,17,24.10
2015,06,27,14,18,24.00
2015,06,27,14,19,23.90
2015,06,27,14,20,23.80
2015,06,27,14,21,23.70
2015,06,27,14,22,23.70
2015,06,27,14,23,23.80
2015,06,27,14,24,24.00
2015,06,27,14,25,24.10
2015,06,27,14,26,24.10
2015,06,27,14,27,24.20
2015,06,27,14,28,24.20
2015,06,27,14,29,24.20
2015,06,27,14,30,24.20
2015,06,27,14,31,24.20
2015,06,27,14,32,24.20
2015,06,27,14,33,24.40
2015,06,27,14,34,24.50
2015,06,27,14,35,24.70
2015,06,27,14,36,24.70
2015,06,27,14,37,24.70
2015,06,27,14,38,24.70
2015,06,27,14,39,24.70
2015,06,27,14,40,24.70
2015,06,27,14,41,24.60
2015,06,27,14,42,24.70
2015,06,27,14,43,24.70
2015,06,27,14,44,24.80
2015,06,27,14,45,24.90
2015,06,27,14,46,25.00
2015,06,27,14,47,25.00
2015,06,27,14,48,25.10
2015,06,27,14,49,25.10
2015,06,27,14,50,25.20
2015,06,27,14,51,25.20
2015,06,27,14,52,25.20
2015,06,27,14,53,25.20
2015,06,27,14,54,25.30
2015,06,27,14,55,25.40
2015,06,27,14,56,25.50
2015,06,27,14,57,25.40
2015,06,27,14,58,25.40
2015,06,27,14,59,25.50
2015,06,27,15,00,25.60
2015,06,27,15,01,25.70
2015,06,27,15,02,25.80
2015,06,27,15,03,25.90
2015,06,27,15,04,26.00
2015,06,27,15,05,26.00
2015,06,27,15,06,26.10
2015,06,27,15,07,26.30
2015,06,27,15,08,26.50
2015,06,27,15,09,26.60
2015,06,27,15,10,26.80
2015,06,27,15,11,26.90
2015,06,27,15,12,26.90
2015,06,27,15,13,26.90
2015,06,27,15,14,26.80
2015,06,27,15,15,26.80
2015,06,27,15,16,26.80
2015,06,27,15,17,26.80
2015,06,27,15,18,26.90
2015,06,27,15,19,27.00
2015,06,27,15,20,27.10
2015,06,27,15,21,27.20
2015,06,27,15,22,27.10
2015,06,27,15,23,27.20
2015,06,27,15,24,27.10
2015,06,27,15,25,27.10
2015,06,27,15,26,26.90
2015,06,27,15,27,26.90
2015,06,27,15,28,27.00
2015,06,27,15,29,27.10
2015,06,27,15,30,27.20
2015,06,27,15,31,27.30
2015,06,27,15,32,27.40
2015,06,27,15,33,27.30
2015,06,27,15,34,27.30
2015,06,27,15,35,27.30
2015,06,27,15,36,27.40
2015,06,27,15,37,27.40
2015,06,27,15,38,27.40
2015,06,27,15,39,27.50
2015,06,27,15,40,27.60
2015,06,27,15,41,27.70
2015,06,27,15,42,27.80
2015,06,27,15,43,27.90
2015,06,27,15,44,27.80
2015,06,27,15,45,27.80
2015,06,27,15,46,27.90
2015,06,27,15,47,27.90
2015,06,27,15,48,27.80
2015,06,27,15,49,27.80
2015,06,27,15,50,27.80
2015,06,27,15,51,27.70
2015,06,27,15,52,27.70
2015,06,27,15,53,27.70
2015,06,27,15,54,27.70
2015,06,27,15,55,27.60
2015,06,27,15,56,27.60
2015,06,27,15,57,27.50
2015,06,27,15,58,27.60
2015,06,27,15,59,27.50
2015,06,27,16,00,27.50
2015,06,27,16,01,27.50
2015,06,27,16,02,27.40
2015,06,27,16,03,27.40
2015,06,27,16,04,27.60
2015,06,27,16,05,27.70
2015,06,27,16,06,27.70
2015,06,27,16,07,27.80
2015,06,27,16,08,27.80
2015,06,27,16,09,27.90
2015,06,27,16,10,28.00
2015,06,27,16,11,28.10
2015,06,27,16,12,28.10
2015,06,27,16,13,28.30
2015,06,27,16,14,28.40
2015,06,27,16,15,28.40
2015,06,27,16,16,28.30
2015,06,27,16,17,28.30
2015,06,27,16,18,28.30
2015,06,27,16,19,28.30
2015,06,27,16,20,28.20
2015,06,27,16,21,28.10
2015,06,27,16,22,28.00
2015,06,27,16,23,28.00
2015,06,27,16,24,28.00
2015,06,27,16,25,27.90
2015,06,27,16,26,27.90
2015,06,27,16,27,27.90
2015,06,27,16,28,27.80
2015,06,27,16,29,27.80
2015,06,27,16,30,27.80
2015,06,27,16,31,27.80
2015,06,27,16,32,27.90
2015,06,27,16,33,27.90
2015,06,27,16,34,28.00
2015,06,27,16,35,28.00
2015,06,27,16,36,28.10
2015,06,27,16,37,28.10
2015,06,27,16,38,28.00
2015,06,27,16,39,28.00
2015,06,27,16,40,28.10
2015,06,27,16,41,28.10
2015,06,27,16,42,28.10
2015,06,27,16,43,28.10
2015,06,27,16,44,28.20
2015,06,27,16,45,28.30
2015,06,27,16,46,28.20
2015,06,27,16,47,28.10
2015,06,27,16,48,28.00
2015,06,27,16,49,27.90
2015,06,27,16,50,27.70
2015,06,27,16,51,27.70
2015,06,27,16,52,27.60
2015,06,27,16,53,27.50
2015,06,27,16,54,27.40
2015,06,27,16,55,27.40
2015,06,27,16,56,27.40
2015,06,27,16,57,27.40
2015,06,27,16,58,27.40
2015,06,27,16,59,27.30
2015,06,27,17,00,27.30
2015,06,27,17,01,27.40
2015,06,27,17,02,27.40
2015,06,27,17,03,27.30
2015,06,27,17,04,27.30
2015,06,27,17,05,27.20
2015,06,27,17,06,27.10
2015,06,27,17,07,27.10
2015,06,27,17,08,27.00
2015,06,27,17,09,26.80
2015,06,27,17,10,26.80
2015,06,27,17,11,26.80
2015,06,27,17,12,26.70
2015,06,27,17,13,26.70
2015,06,27,17,14,26.60
2015,06,27,17,15,26.50
2015,06,27,17,16,26.30
2015,06,27,17,17,26.10
2015,06,27,17,18,25.90
2015,06,27,17,19,25.70